SXN44R LFMD-LESU

Flight info

Callsign SXN44R
Flight time 0h 53m
Altitude 39000
Route LANKO G7 OB/N0342F180 G7 MTG/N0364F390 G7 MAMES/N0385F310 M984 BISBA N975 BGR/N0369F230 L110 LATRO
Aircraft C525/L-SDFGRWY/SB1

Departure

Time 2026-04-22 19:04
Airport Cannes Mandelieu Airport (LFMD)

Arrival

Time 2026-04-22 19:58
Airport Pirineus - la Seu d'Urgel Airport (LESU)
Time Latitude Longitude Altitude Speed Heading
2026-04-22 18:52 43.54720 6.95355 13 ft 0 kts 173°
2026-04-22 19:00 43.54702 6.95355 13 ft 3 kts 213°
2026-04-22 19:01 43.54690 6.95324 13 ft 4 kts 262°
2026-04-22 19:01 43.54723 6.95267 13 ft 13 kts 352°
2026-04-22 19:01 43.54805 6.95256 13 ft 11 kts 353°
2026-04-22 19:01 43.54869 6.95243 13 ft 8 kts 352°
2026-04-22 19:02 43.54919 6.95234 13 ft 6 kts 353°
2026-04-22 19:02 43.54955 6.95228 13 ft 5 kts 353°
2026-04-22 19:02 43.55011 6.95218 13 ft 17 kts 352°
2026-04-22 19:02 43.55128 6.95200 13 ft 16 kts 352°
2026-04-22 19:03 43.55226 6.95180 13 ft 13 kts 352°
2026-04-22 19:03 43.55306 6.95166 13 ft 10 kts 352°
2026-04-22 19:03 43.55367 6.95150 13 ft 8 kts 332°
2026-04-22 19:03 43.55391 6.95056 13 ft 11 kts 263°
2026-04-22 19:04 43.55360 6.94990 13 ft 8 kts 192°
2026-04-22 19:04 43.55258 6.95003 11 ft 22 kts 173°
2026-04-22 19:04 43.54797 6.95087 25 ft 125 kts 169°
2026-04-22 19:04 43.53722 6.95344 774 ft 181 kts 165°
2026-04-22 19:05 43.52310 6.95804 1529 ft 235 kts 162°
2026-04-22 19:05 43.50954 6.96848 3072 ft 224 kts 129°
2026-04-22 19:05 43.49867 6.98491 4729 ft 241 kts 134°
2026-04-22 19:05 43.48477 6.99832 6461 ft 254 kts 152°
2026-04-22 19:06 43.46721 7.00143 8129 ft 263 kts 192°
2026-04-22 19:06 43.45051 6.99180 9923 ft 261 kts 221°
2026-04-22 19:06 43.43894 6.97312 11632 ft 255 kts 237°
2026-04-22 19:07 43.41674 6.93532 15176 ft 249 kts 236°
2026-04-22 19:07 43.40596 6.91703 16932 ft 241 kts 237°
2026-04-22 19:07 43.39560 6.89938 18642 ft 235 kts 238°
2026-04-22 19:07 43.38529 6.88184 19820 ft 243 kts 238°
2026-04-22 19:08 43.37454 6.86351 21019 ft 249 kts 238°
2026-04-22 19:08 43.36349 6.84485 22188 ft 255 kts 238°
2026-04-22 19:08 43.35213 6.82551 23248 ft 264 kts 238°
2026-04-22 19:08 43.34287 6.80386 24254 ft 262 kts 251°
2026-04-22 19:09 43.33539 6.78084 25231 ft 266 kts 251°
2026-04-22 19:09 43.32745 6.75763 26174 ft 271 kts 248°
2026-04-22 19:09 43.32151 6.74247 26793 ft 274 kts 246°
2026-04-22 19:09 43.30914 6.71146 28020 ft 279 kts 247°
2026-04-22 19:10 43.29996 6.68778 28926 ft 283 kts 247°
2026-04-22 19:10 43.29387 6.67189 29520 ft 286 kts 247°
2026-04-22 19:10 43.28447 6.64761 30383 ft 290 kts 247°
2026-04-22 19:10 43.27496 6.62309 31145 ft 293 kts 247°
2026-04-22 19:11 43.26534 6.59831 31885 ft 296 kts 247°
2026-04-22 19:11 43.25559 6.57330 32612 ft 299 kts 247°
2026-04-22 19:11 43.24578 6.54799 33283 ft 302 kts 247°
2026-04-22 19:11 43.23581 6.52243 33905 ft 306 kts 247°
2026-04-22 19:12 43.22574 6.49655 34462 ft 310 kts 247°
2026-04-22 19:12 43.21549 6.47026 34955 ft 315 kts 247°
2026-04-22 19:12 43.20503 6.44354 35351 ft 322 kts 246°
2026-04-22 19:12 43.19437 6.41615 35822 ft 327 kts 246°
2026-04-22 19:13 43.18353 6.38847 36273 ft 332 kts 246°
2026-04-22 19:13 43.17264 6.36072 36717 ft 337 kts 246°
2026-04-22 19:13 43.16152 6.33231 37167 ft 341 kts 246°
2026-04-22 19:13 43.15021 6.30347 37605 ft 345 kts 246°
2026-04-22 19:14 43.13877 6.27433 38034 ft 350 kts 246°
2026-04-22 19:14 43.12717 6.24484 38468 ft 354 kts 246°
2026-04-22 19:14 43.11542 6.21495 38851 ft 358 kts 246°
2026-04-22 19:14 43.10351 6.18475 39071 ft 365 kts 246°
2026-04-22 19:15 43.09124 6.15354 39079 ft 378 kts 245°
2026-04-22 19:15 43.07855 6.12141 39088 ft 390 kts 245°
2026-04-22 19:15 43.06544 6.08830 39076 ft 400 kts 245°
2026-04-22 19:16 43.03854 6.02031 39088 ft 417 kts 245°
2026-04-22 19:16 43.01077 5.95049 39091 ft 418 kts 245°
2026-04-22 19:17 42.98304 5.88073 39094 ft 418 kts 245°
2026-04-22 19:17 42.95525 5.81106 39096 ft 418 kts 245°
2026-04-22 19:18 42.92759 5.74186 39098 ft 414 kts 245°
2026-04-22 19:18 42.90002 5.67306 39083 ft 413 kts 245°
2026-04-22 19:19 42.87241 5.60435 39078 ft 413 kts 245°
2026-04-22 19:19 42.84480 5.53575 39079 ft 412 kts 245°
2026-04-22 19:20 42.81718 5.46731 39079 ft 412 kts 245°
2026-04-22 19:20 42.78954 5.39899 39079 ft 412 kts 245°
2026-04-22 19:21 42.76201 5.33112 39056 ft 412 kts 245°
2026-04-22 19:21 42.73434 5.26302 39068 ft 412 kts 246°
2026-04-22 19:22 42.70649 5.19472 39067 ft 413 kts 246°
2026-04-22 19:22 42.67863 5.12651 39067 ft 413 kts 246°
2026-04-22 19:23 42.65065 5.05814 39068 ft 414 kts 246°
2026-04-22 19:23 42.62264 4.98987 39066 ft 414 kts 246°
2026-04-22 19:24 42.59456 4.92163 39064 ft 414 kts 246°
2026-04-22 19:24 42.56644 4.85336 39062 ft 415 kts 246°
2026-04-22 19:25 42.53816 4.78493 39060 ft 416 kts 246°
2026-04-22 19:25 42.50982 4.71649 39062 ft 416 kts 246°
2026-04-22 19:26 42.48161 4.64853 39059 ft 417 kts 246°
2026-04-22 19:26 42.45316 4.58015 39061 ft 417 kts 246°
2026-04-22 19:27 42.42465 4.51184 39057 ft 417 kts 246°
2026-04-22 19:27 42.39606 4.44344 39057 ft 417 kts 246°
2026-04-22 19:28 42.36740 4.37509 39057 ft 418 kts 246°
2026-04-22 19:28 42.33871 4.30676 39056 ft 418 kts 246°
2026-04-22 19:29 42.30994 4.23840 39053 ft 418 kts 246°
2026-04-22 19:29 42.28106 4.16999 39051 ft 418 kts 246°
2026-04-22 19:30 42.25710 4.11326 39052 ft 418 kts 246°
2026-04-22 19:30 42.22354 4.03416 39052 ft 418 kts 246°
2026-04-22 19:31 42.19770 3.96447 39042 ft 412 kts 252°
2026-04-22 19:31 42.17428 3.89355 39042 ft 413 kts 251°
2026-04-22 19:32 42.15117 3.82268 39045 ft 413 kts 252°
2026-04-22 19:32 42.12793 3.75196 39035 ft 412 kts 251°
2026-04-22 19:33 42.10482 3.68175 39035 ft 412 kts 251°
2026-04-22 19:33 42.08157 3.61122 39035 ft 412 kts 251°
2026-04-22 19:34 42.05828 3.54082 39032 ft 411 kts 251°
2026-04-22 19:34 42.03498 3.47051 39026 ft 411 kts 251°
2026-04-22 19:35 42.01163 3.40026 39027 ft 411 kts 251°
2026-04-22 19:35 41.99219 3.34190 39026 ft 411 kts 251°
2026-04-22 19:36 41.96480 3.25993 39018 ft 411 kts 251°
2026-04-22 19:36 41.94796 3.18757 39012 ft 402 kts 265°
2026-04-22 19:37 41.94429 3.11373 39013 ft 398 kts 271°
2026-04-22 19:37 41.94152 3.03875 38385 ft 403 kts 271°
2026-04-22 19:37 41.94007 3.00165 37862 ft 392 kts 271°
2026-04-22 19:38 41.93870 2.96566 37368 ft 381 kts 271°
2026-04-22 19:38 41.93741 2.93050 36905 ft 373 kts 271°
2026-04-22 19:38 41.93607 2.89600 36426 ft 366 kts 271°
2026-04-22 19:38 41.93478 2.86213 35962 ft 361 kts 271°
2026-04-22 19:39 41.93348 2.82864 35499 ft 357 kts 271°
2026-04-22 19:39 41.93218 2.79550 35025 ft 353 kts 270°
2026-04-22 19:39 41.93017 2.76283 34565 ft 351 kts 264°
2026-04-22 19:39 41.92559 2.73078 34148 ft 348 kts 264°
2026-04-22 19:40 41.92154 2.69892 33660 ft 352 kts 264°
2026-04-22 19:40 41.91739 2.66637 33174 ft 354 kts 263°
2026-04-22 19:40 41.91300 2.63365 32720 ft 356 kts 263°
2026-04-22 19:40 41.90853 2.60078 32253 ft 359 kts 263°
2026-04-22 19:41 41.90411 2.56738 31755 ft 372 kts 263°
2026-04-22 19:41 41.89960 2.53327 31254 ft 370 kts 263°
2026-04-22 19:41 41.89495 2.49921 30765 ft 370 kts 263°
2026-04-22 19:41 41.89041 2.46523 30281 ft 370 kts 262°
2026-04-22 19:42 41.88582 2.43137 29765 ft 369 kts 262°
2026-04-22 19:42 41.88129 2.39756 29276 ft 367 kts 262°
2026-04-22 19:42 41.87670 2.36397 28796 ft 364 kts 262°
2026-04-22 19:42 41.87220 2.33060 28321 ft 362 kts 262°
2026-04-22 19:43 41.86318 2.26432 27368 ft 359 kts 262°
2026-04-22 19:43 41.85865 2.23134 26897 ft 357 kts 262°
2026-04-22 19:43 41.85426 2.19913 26435 ft 356 kts 262°
2026-04-22 19:44 41.84977 2.16658 25976 ft 354 kts 262°
2026-04-22 19:44 41.84533 2.13420 25501 ft 352 kts 262°
2026-04-22 19:44 41.84087 2.10187 25039 ft 351 kts 262°
2026-04-22 19:44 41.83645 2.06979 24583 ft 350 kts 262°
2026-04-22 19:45 41.83349 2.04855 24276 ft 349 kts 261°
2026-04-22 19:45 41.82736 2.00596 23667 ft 346 kts 261°
2026-04-22 19:45 41.82290 1.97439 23165 ft 344 kts 261°
2026-04-22 19:45 41.81842 1.94310 22710 ft 340 kts 261°
2026-04-22 19:46 41.81403 1.91218 22281 ft 336 kts 261°
2026-04-22 19:46 41.80964 1.88151 21857 ft 333 kts 261°
2026-04-22 19:46 41.80530 1.85102 21416 ft 332 kts 261°
2026-04-22 19:46 41.80090 1.82076 20975 ft 331 kts 261°
2026-04-22 19:47 41.79658 1.79044 20540 ft 330 kts 261°
2026-04-22 19:47 41.79211 1.76069 20110 ft 328 kts 260°
2026-04-22 19:47 41.78919 1.74049 19824 ft 326 kts 262°
2026-04-22 19:47 41.78396 1.70090 19259 ft 326 kts 260°
2026-04-22 19:48 41.77941 1.67124 18821 ft 324 kts 262°
2026-04-22 19:48 41.77856 1.64132 18397 ft 321 kts 272°
2026-04-22 19:48 41.78129 1.61174 17940 ft 319 kts 283°
2026-04-22 19:48 41.78783 1.58340 17512 ft 317 kts 291°
2026-04-22 19:49 41.79797 1.55718 17094 ft 316 kts 299°
2026-04-22 19:49 41.80888 1.53162 16674 ft 315 kts 297°
2026-04-22 19:49 41.81966 1.50618 16262 ft 314 kts 298°
2026-04-22 19:49 41.83060 1.48080 15848 ft 314 kts 297°
2026-04-22 19:50 41.84146 1.45543 15431 ft 314 kts 297°
2026-04-22 19:50 41.85233 1.43001 15013 ft 313 kts 297°
2026-04-22 19:50 41.86308 1.40463 14594 ft 313 kts 297°
2026-04-22 19:50 41.87396 1.37932 14180 ft 313 kts 297°
2026-04-22 19:51 41.88470 1.35398 13765 ft 312 kts 297°
2026-04-22 19:51 41.89535 1.32900 13324 ft 311 kts 297°
2026-04-22 19:51 41.90695 1.30462 12909 ft 311 kts 305°
2026-04-22 19:51 41.92186 1.28349 12501 ft 312 kts 313°
2026-04-22 19:52 41.93943 1.26603 12089 ft 316 kts 324°
2026-04-22 19:52 41.95917 1.25277 11676 ft 320 kts 334°
2026-04-22 19:52 41.98077 1.24462 11252 ft 325 kts 344°
2026-04-22 19:52 42.00352 1.24200 10819 ft 329 kts 355°
2026-04-22 19:53 42.02601 1.24383 10395 ft 317 kts 359°
2026-04-22 19:53 42.04762 1.24569 9986 ft 306 kts 358°
2026-04-22 19:53 42.06145 1.24689 9709 ft 297 kts 359°
2026-04-22 19:53 42.08810 1.25193 9190 ft 287 kts 12°
2026-04-22 19:54 42.10673 1.26216 8775 ft 289 kts 21°
2026-04-22 19:54 42.12427 1.27400 8461 ft 283 kts 19°
2026-04-22 19:54 42.14292 1.28372 8072 ft 290 kts 17°
2026-04-22 19:54 42.16153 1.29515 7679 ft 298 kts 24°
2026-04-22 19:55 42.18002 1.30794 7294 ft 298 kts 22°
2026-04-22 19:55 42.19890 1.31949 6827 ft 300 kts 19°
2026-04-22 19:55 42.21806 1.33096 6277 ft 302 kts 20°
2026-04-22 19:55 42.23721 1.34281 5651 ft 301 kts 19°
2026-04-22 19:56 42.25620 1.35468 5125 ft 303 kts 23°
2026-04-22 19:56 42.27487 1.36679 4560 ft 290 kts 23°
2026-04-22 19:56 42.29187 1.37710 4026 ft 255 kts 22°
2026-04-22 19:56 42.30247 1.38369 3704 ft 247 kts 21°
2026-04-22 19:57 42.31664 1.39344 3412 ft 206 kts 33°
2026-04-22 19:57 42.32609 1.40511 3350 ft 160 kts 44°
2026-04-22 19:57 42.33293 1.41533 3233 ft 143 kts 45°
2026-04-22 19:57 42.33964 1.42491 3174 ft 137 kts 32°
2026-04-22 19:58 42.34797 1.42751 3162 ft 126 kts 326°
2026-04-22 19:58 42.35044 1.41802 3175 ft 112 kts 220°
2026-04-22 19:58 42.34741 1.41595 3047 ft 0 kts 174°
2026-04-22 19:58 42.35346 1.42106 3071 ft 70 kts 219°
2026-04-22 19:59 42.35473 1.42191 3243 ft 139 kts 214°
2026-04-22 20:00 42.33727 1.40631 2649 ft 21 kts 224°
2026-04-22 20:00 42.33654 1.40530 2648 ft 10 kts 291°
2026-04-22 20:01 42.33715 1.40474 2647 ft 9 kts 285°
2026-04-22 20:01 42.33704 1.40456 2647 ft 3 kts 212°
2026-04-22 20:01 42.33696 1.40450 2647 ft 0 kts 212°